Weather History for Beaufort, NC

Change the Weather History Date:

Thursday, April 25, 2013

  Actual Average Record
Temperature  
Mean Temperature 61 °F -  
Max Temperature 71 °F 74 °F 88 °F (1990)
Min Temperature 52 °F 52 °F 37 °F (1969)
Degree Days  
Heating Degree Days 4    
Growing Degree Days 11 (Base 50)    
Moisture  
Dew Point 56 °F    
Average Humidity 81    
Maximum Humidity 94    
Minimum Humidity 65    
Precipitation  
Precipitation 0.02 in - - ()
Sea Level Pressure  
Sea Level Pressure 30.18 in    
Wind  
Wind Speed 9 mph (NNE)    
Max Wind Speed 17 mph    
Max Gust Speed 26 mph    
Visibility 9 miles    
Events Rain    
Averages and records for this station are not official NWS values.
T = Trace of Precipitation, MM = Missing Value Source: NWS Daily Summary

Daily Weather History Graph

Daily Weather History Graph

Search for Another Location

Airport:

Trip Planner

Search our weather history database for the weather conditions in past years. The results will help you decide how hot, cold, wet, or windy it might be!

Date:

Astronomy

Apr. 25, 2013 Rise Set
Actual Time 6:22 AM EDT 7:47 PM EDT
Civil Twilight 5:56 AM EDT 8:13 PM EDT
Nautical Twilight 5:24 AM EDT 8:45 PM EDT
Astronomical Twilight 4:51 AM EDT 9:18 PM EDT
Moon 7:56 PM EDT (4/25) 6:03 AM EDT (4/25)
Length of Visible Light 14h 17m
Length of Day
13h 24m
Full, 100% of the Moon is Illuminated
Apr 25
Full
Apr 25
Full
May 2
Last Quarter
May 9
New
May 18
First Quarter

Hourly Weather History & Observations

Time (EDT) Temp. Dew Point Humidity Pressure Visibility Wind Dir Wind Speed Gust Speed Precip Events Conditions
12:58 AM 64.9 °F 61.0 °F 87% 30.10 in 10.0 mi SSW 10.4 mph - N/A   Clear
1:58 AM 64.9 °F 62.1 °F 90% 30.09 in 9.0 mi SSW 10.4 mph - N/A   Clear
2:58 AM 64.0 °F 62.1 °F 93% 30.08 in 8.0 mi SSW 6.9 mph - N/A   Clear
3:58 AM 64.0 °F 62.1 °F 93% 30.09 in 7.0 mi SW 8.1 mph - N/A   Clear
4:58 AM 64.9 °F 63.0 °F 93% 30.09 in 9.0 mi SW 10.4 mph - N/A   Partly Cloudy
5:18 AM 66.2 °F 62.6 °F 88% 30.10 in 9.0 mi WSW 8.1 mph - N/A   Mostly Cloudy
5:30 AM 64.4 °F 62.6 °F 94% 30.11 in 8.0 mi WSW 9.2 mph - N/A   Overcast
5:58 AM 64.9 °F 63.0 °F 93% 30.12 in 9.0 mi SW 9.2 mph - N/A   Overcast
6:58 AM 64.9 °F 63.0 °F 93% 30.14 in 9.0 mi West 8.1 mph - N/A   Overcast
7:58 AM 64.9 °F 63.0 °F 93% 30.16 in 7.0 mi West 4.6 mph - N/A   Overcast
8:58 AM 64.0 °F 62.1 °F 93% 30.17 in 6.0 mi WSW 4.6 mph - N/A   Overcast
9:58 AM 66.9 °F 63.0 °F 87% 30.17 in 8.0 mi North 6.9 mph 26.5 mph N/A   Overcast
10:58 AM 69.1 °F 57.9 °F 68% 30.19 in 10.0 mi North 10.4 mph - N/A   Mostly Cloudy
11:58 AM 64.9 °F 55.9 °F 73% 30.20 in 10.0 mi NE 17.3 mph 25.3 mph N/A   Overcast
12:58 PM 64.9 °F 54.0 °F 68% 30.21 in 10.0 mi NE 11.5 mph 20.7 mph N/A   Mostly Cloudy
1:43 PM 60.8 °F 51.8 °F 72% 30.21 in 10.0 mi ENE 10.4 mph 18.4 mph 0.00 in Rain Light Rain
1:58 PM 60.1 °F 53.1 °F 78% 30.20 in 4.0 mi ENE 11.5 mph 19.6 mph 0.01 in Rain Light Rain
2:58 PM 61.0 °F 52.0 °F 72% 30.22 in 10.0 mi ENE 13.8 mph 19.6 mph 0.01 in   Mostly Cloudy
3:58 PM 63.0 °F 51.1 °F 65% 30.21 in 10.0 mi ENE 12.7 mph - N/A   Clear
4:58 PM 61.0 °F 50.0 °F 67% 30.22 in 10.0 mi NE 10.4 mph 18.4 mph N/A   Overcast
5:58 PM 57.9 °F 48.9 °F 72% 30.23 in 10.0 mi NE 11.5 mph - N/A   Mostly Cloudy
6:58 PM 57.0 °F 46.9 °F 69% 30.22 in 10.0 mi ENE 10.4 mph 16.1 mph N/A   Overcast
7:58 PM 55.9 °F 46.0 °F 69% 30.25 in 10.0 mi NE 8.1 mph - N/A   Overcast
8:58 PM 54.0 °F 46.9 °F 77% 30.26 in 10.0 mi NE 6.9 mph - N/A   Partly Cloudy
9:58 PM 54.0 °F 48.0 °F 80% 30.27 in 10.0 mi NE 8.1 mph - N/A   Mostly Cloudy
10:58 PM 53.1 °F 46.9 °F 80% 30.29 in 10.0 mi NNE 4.6 mph - N/A   Partly Cloudy
11:58 PM 52.0 °F 46.9 °F 83% 30.28 in 10.0 mi Calm Calm - N/A   Clear